www.pogodaiklimat.ru

Погода и климат >> Архив погоды >> Бразилия >> Эспириту-Санту >> Витория


ПОГОДА в Витории

  • Прогноз погоды в Витории
  • Монитор погоды в Витории

АРХИВ ПОГОДЫ в Витории

Время (UTC), дата Ветер
(напр.,м/с)
 
Видим.   Явления Облачность Т
(С)
Тd
(С)
f
(%)
Тe
(С)
Тes
(С)
Комфортность P
(гПа)
Po
(гПа)
Тmin
(С)
Tmax
(С)
R
(мм)
R24
(мм)
S
(см)
18 17.03 ЮВ 4 20 км 4/1 600 м
[Cu med, cong Ci fib]
+29.6 +25.4 78 +43 +48 опасность
перегрева
1011.0 1010.5
21 17.03 СВ 4 20 км 4/0
[Ac trans Ci fib]
+29.0 +23.8 74 +40 +40 очень
душно
1010.9 1010.4
00 18.03 СВ 3 20 км ясно +27.6 +24.7 84 +39 +39 очень
душно
1013.2 1012.7 +34.1
03 18.03 СЗ 1 20 км ясно +26.1 +24.5 91 +37 +37 очень
душно
1012.7 1012.2
06 18.03 СЗ 1 20 км 9/1 600 м
[Sc Ac trans]
+25.7 +24.7 94 +36 +36 очень
душно
1011.8 1011.3
09 18.03 СЗ 2 20 км 8/1 1000 м
[Sc Ac trans Ci fib]
+25.2 +24.0 93 +35 +35 очень
душно
1012.1 1011.6
12 18.03 С 3 20 км 9/0
[Ci sp]
+31.9 +22.2 57 +41 +49 опасность
перегрева
1012.5 1012.0 +25.2
15 18.03 С 3 20 км 8/1 1000 м
[Cu hum Ac lent Ci sp]
+35.2 +21.1 44 +42 +51 опасность
перегрева
1010.5 1010.0
18 18.03 СВ 8 20 км 3/1 600 м
[Cu med, cong]
+32.6 +24.3 62 +45 +46 опасность
перегрева
1008.0 1007.5
21 18.03 СВ 5 20 км 8/8 1500 м
[Cu hum]
+29.1 +23.2 71 +39 +39 очень
душно
1008.9 1008.4
00 19.03 З 2 10 км в посл. час дождь 10/8 1000 м
[Sc diur, vesp As op]
+27.1 +24.2 84 +38 +38 очень
душно
1010.8 1010.3 +35.2 0.0
03 19.03 СЗ 2 20 км 10/8 1000 м
[Sc As op]
+26.0 +24.8 93 +37 +37 очень
душно
1010.5 1010.0
06 19.03 ЮЗ 1 15 км в посл. час гроза {дождь} 9/4 300 м
[Sc Ac trans]
+25.1 +24.4 96 +35 +35 очень
душно
1009.3 1008.8 15
09 19.03 СВ 3 20 км 9/1 600 м
[Sc Ac trans Cs]
+26.2 +24.1 88 +36 +36 очень
душно
1008.6 1008.1
12 19.03 С 4 20 км 8/0
[Ci sp]
+31.4 +23.9 64 +43 +49 опасность
перегрева
1009.3 1008.8 +25.1 15
15 19.03 СЗ 4 20 км 4/4 600 м
[Cu hum]
+35.6 +23.9 51 +47 +56 опасность
перегрева
1007.5 1007.0
18 19.03 В 7 20 км 9/4 1000 м
[Cu med, cong Ac As Ci sp]
+30.5 +25.1 73 +44 +45 опасность
перегрева
1005.4 1004.9
21 19.03 СВ 4 20 км 9/4 1000 м
[Sc Ac trans Ci sp]
+28.8 +25.4 82 +42 +42 опасность
перегрева
1006.3 1005.8
00 20.03 В 2 20 км 9/4 1500 м
[Sc Ci fib]
+28.2 +26.1 88 +42 +42 опасность
перегрева
1008.5 1008.0 +35.6
03 20.03 СЗ 2 20 км 9/0
[Ci fib]
+27.2 +26.0 93 +41 +41 опасность
перегрева
1008.5 1008.0
06 20.03 С 1 20 км ясно +26.5 +25.8 96 +39 +39 очень
душно
1007.5 1007.0
09 20.03 СЗ 1 12 км дымка 8/0
[As trans]
+26.1 +25.8 98 +38 +39 очень
душно
1008.2 1007.7
12 20.03 Ю 3 20 км 9/1 600 м
[Cu med, cong Ac trans Ci fib]
+30.8 +23.4 65 +42 +47 опасность
перегрева
1009.8 1009.3 +26.1
15 20.03 Ю 5 20 км 9/4 1000 м
[Cu med, cong Cs]
+31.2 +24.6 68 +44 +49 опасность
перегрева
1008.4 1007.9
18 20.03 Ю 6 12 км осадки на расстоянии 9/3 600 м
[Cu med, cong Ci fib]
+30.1 +25.7 77 +44 +46 опасность
перегрева
1006.3 1005.8
21 20.03 Ю 2 6000 м слаб. ливневой дождь, в посл. час гроза 9/9 300 м
[Sc]
+26.3 +25.6 96 +39 +39 очень
душно
1007.8 1007.3
00 21.03 ЮЗ 5 20 км {гроза, дождь} 9/9 300 м
[Sc]
+27.8 +23.9 79 +38 +38 очень
душно
1010.1 1009.6 +31.2 11
03 21.03 ЮЗ 4 10 км слаб. дождь 8/8 300 м
[Sc]
+27.3 +23.7 81 +37 +37 очень
душно
1010.0 1009.5
06 21.03 ЮЗ 4 15 км мгла {дождь} 9/1 600 м
[Sc Ac trans]
+26.8 +22.5 77 +35 +35 очень
душно
1008.8 1008.3 0.0
09 21.03 ЮЗ 5 20 км 9/1 600 м
[Sc Ac As]
+26.5 +22.7 80 +35 +35 очень
душно
1009.5 1009.0
12 21.03 ЮЗ 5 20 км 9/3 600 м
[Sc Ac und Ci fib]
+27.9 +22.0 70 +36 +38 очень
душно
1011.3 1010.8 +26.3 11
18 21.03 Ю 7 20 км 8/1 600 м
[Cu med, cong Ac und]
+27.9 +21.1 67 +35 +36 очень
душно
1009.0 1008.5
00 22.03 ЮЗ 3 20 км 8/4 600 м
[Sc Ac lent]
+26.3 +20.5 70 +33 +33 очень
душно
1012.1 1011.6 +30.5
03 22.03 ЮЗ 6 20 км 8/4 600 м
[Sc Ac lent]
+25.2 +21.0 78 +32 +32 очень
душно
1012.0 1011.5
06 22.03 ЮЗ 7 20 км 10/9 300 м
[Sc As op]
+24.6 +20.8 79 +31 +31 очень
душно
1011.1 1010.6
09 22.03 ЮЗ 5 3000 м слаб. дождь 10/10 200 м
[Sc]
+23.1 +21.8 92 +31 +31 очень
душно
1012.5 1012.0
12 22.03 Ю 6 16 км слаб. дождь 10/10 600 м
[Sc diur, vesp]
+24.5 +21.7 84 +31 +31 очень
душно
1014.7 1014.2 +23.1
15 22.03 ЮЗ 9 4000 м слаб. дождь 10/10 200 м
[Sc]
+23.2 +21.5 90 +31 +31 очень
душно
1015.6 1015.1
18 22.03 ЮЗ 9 8000 м дымка {дождь} 10/10 600 м
[Sc]
+25.1 +22.1 83 +32 +32 очень
душно
1013.6 1013.1 1
21 22.03 Ю 7 3000 м слаб. дождь 10/10 200 м
[Sc]
+22.3 +21.1 93 +29 +29 очень
душно
1015.1 1014.6
00 23.03 ЮЗ 8 20 км {дождь} 8/8 1000 м
[Cu hum]
+23.4 +20.6 84 +31 +31 очень
душно
1016.7 1016.2 +25.9 4
03 23.03 ЮЗ 4 20 км в посл. час дождь 8/8 1500 м
[Cu hum]
+22.7 +19.7 83 +29 +29 очень
душно
1016.1 1015.6
06 23.03 ЮЗ 4 8000 м слаб. дождь 9/6 600 м
[Sc Ac trans]
+23.0 +19.6 81 +30 +30 очень
душно
1014.3 1013.8 1
09 23.03 ЮЗ 2 20 км {дождь} 8/1 600 м
[Sc Ac und]
+23.8 +20.2 80 +29 +29 душно 1014.8 1014.3
12 23.03 ЮЗ 7 20 км {дождь} 9/3 600 м
[Cu med, cong Ac und Ci fib]
+26.3 +21.8 76 +34 +35 очень
душно
1016.8 1016.3 +21.8 5
15 23.03 Ю 6 20 км 9/1 600 м
[Cu hum Ac trans Ci fib]
+28.3 +20.5 63 +35 +39 очень
душно
1015.8 1015.3
18 23.03 Ю 6 20 км 9/3 600 м
[Cu hum Ac trans]
+29.4 +19.0 54 +35 +36 очень
душно
1013.8 1013.3
21 23.03 ЮЗ 6 8000 м осадки на расстоянии 10/10 600 м
[Cu hum]
+24.5 +21.5 83 +31 +31 очень
душно
1014.7 1014.2
00 24.03 ЮЗ 3 15 км дымка {дождь} 9/4 600 м
[Sc Ac trans]
+25.1 +21.7 81 +32 +32 очень
душно
1016.1 1015.6 +29.4 0.3
03 24.03 20 км н/о +25.6 +22.0 81 +33 +33 очень
душно
1015.2 1014.7
06 24.03 Ю 3 15 км слаб. дождь 10/10 600 м
[Sc]
+23.9 +22.7 93 +31 +31 очень
душно
1014.1 1013.6
09 24.03 ЮЗ 4 10 км в посл. час дождь 10/8 300 м
[Sc Ac As]
+23.9 +22.2 90 +31 +31 очень
душно
1014.3 1013.8
12 24.03 ЮЗ 4 20 км {дождь} 9/5 600 м
[Sc Ac trans]
+26.5 +23.2 82 +36 +37 очень
душно
1016.2 1015.7 +23.8 1
15 24.03 Ю 6 20 км 9/6 600 м
[Sc diur, vesp Ac trans]
+28.8 +22.7 70 +38 +40 очень
душно
1015.8 1015.3

 

Местоположение метеостанции Витория (Эспириту-Санту, Бразилия): широта -20.26 долгота -40.28 высота над уровнем моря 4 м.

В архиве по умолчанию представлена погода в Витории за последнюю неделю. Архивные данные за месяц целиком и за предыдущие месяцы, начиная с января 2011 года, Вы можете получить, выбрав интересующий диапазон дат из раскрывающегося списка и нажав кнопку "Ввод!".


*Определитесь, кто Вы:
робот инопланетянин человек

Внимание! Время в таблицах - всемирное. Для получения местного времени необходимо прибавить поправку, которая равна -3 ч.

Смотрите также архив погоды в соседних городах и на ближайших метеорологических станциях:

Погода в Витория-Гастейсе (Эспириту-Санту, Бразилия) (8 км)
Погода в Санта-Терезе (Эспириту-Санту, Бразилия) (44 км)
Погода в Алфреду-Шависе (Эспириту-Санту, Бразилия) (62 км)
Погода в Афонсу-Клаудио (Эспириту-Санту, Бразилия) (88 км)
Погода в Линьярисе (Эспириту-Санту, Бразилия) (104 км)
Погода в Айморесе (Минас-Жерайс, Бразилия) (118 км)
Погода в Айморесе (Минас-Жерайс, Бразилия) (119 км)
Погода в Президенти-Кеннеди (Эспириту-Санту, Бразилия) (122 км)
Погода в Алегри (Эспириту-Санту, Бразилия) (136 км)
Погода в Нова-Венесии (Эспириту-Санту, Бразилия) (174 км)

Пояснения к столбцам:

Ветер - указаны скорость ветра в м/с - средняя за 10 мин, порывы в срок и между сроками (в фигурных скобках) и направление, откуда дует ветер: С - северный, СВ - северо-восточный, В - восточный, ЮВ - юго-восточный, Ю - южный, ЮЗ - юго-западный, З - западный, СЗ - северо-западный.
Видимость - горизонтальная дальность видимости в метрах или километрах. При видимости от 1 до 10 км при отсутствии осадков обычно наблюдается дымка, при ухудшении видимости до 1 км и менее - туман. В сухую погоду видимость может ухудшаться дымом, пылью или мглою.
Явления - указаны атмосферные явления, наблюдавшиеся в срок или в последний час перед сроком; фигурными скобками обозначены явления, наблюдавшиеся между сроками (за 1-3 часа до срока); квадратными скобками обозначены град или гололедные отложения с указанием их диаметра в мм.
Облачность - указаны через наклонную черту общая и нижняя облачность в баллах и высота нижней границы облаков в метрах; квадратными скобками обозначены формы облаков: Ci - перистые, Cs - перисто-слоистые, Cc - перисто-кучевые, Ac - высококучевые, As - высокослоистые, Sc - слоисто-кучевые, Ns - слоисто-дождевые, Cu - кучевые, Cb - кучево-дождевые. Подробнее классификацию облаков см. в Атласе облаков (PDF).
T - Температура воздуха - температура, измеренная на высоте 2 м над землей.
Td - Температура точки росы - температура, при понижении до которой содержащийся в воздухе водяной пар достигнет насыщения.
f - Относительная влажность воздуха - влажноcть воздуха, измеренная на высоте 2 м над землей.
Te - Эффективная температура - температура, которую ощущает одетый по сезону человек в тени. Характеристика душности погоды. При расчете учитывается влияние влажности воздуха и скорости ветра на теплоощущения человека.
Tes - Эффективная температура на солнце - температура, которую ощущает человек, с поправкой на солнечный нагрев. Характеристика знойности погоды. Зависит от высоты солнца над горизонтом, облачности и скорости ветра. Ночью, в пасмурную погоду, а также при ветре 12 м/с и более поправка равна нулю.
P - Атмосферное давление - приведенное к уровню моря атмосферное давление.
Po - Атмосферное давление - измеренное на уровне метеостанции атмосферное давление.
Tmin - Минимальная температура - минимум температуры воздуха на высоте 2 м над землей.
Tmax - Максимальная температура - максимум температуры воздуха на высоте 2 м над землей.
R - Количество осадков - Количество выпавших осадков за период времени, мм. При наведении курсора мыши на число - период времени, за который выпало указанное количество осадков.
R24 - Количество осадков - Количество выпавших осадков за 24 часа, мм.
S - Снежный покров - Высота снежного покрова, см. При наведении курсора мыши на число - состояние снежного покрова и степень покрытия местности в баллах.